| time (UTC) | temp F | wind direction | speed MPH | gust MPH | rain 1hr in | rain 24hr in | rain mn in | humidity % | barometer mb |
| 20260508122042 | 72 | 253 | 4.0 | 11.0 | 0.00 | 0.00 | 0.00 | 48 | 1010.6 |
| 20260508121203 | 71 | 253 | 4.0 | 10.0 | 0.00 | 0.00 | 0.00 | 50 | 1010.8 |
| 20260508120242 | 70 | 189 | 4.0 | 9.0 | 0.00 | 0.00 | 0.00 | 51 | 1011.0 |
| 20260508115342 | 70 | 219 | 5.0 | 9.0 | 0.00 | 0.00 | 0.00 | 52 | 1011.0 |
| 20260508114442 | 70 | 220 | 4.0 | 11.0 | 0.00 | 0.00 | 0.00 | 50 | 1011.0 |
| 20260508113542 | 70 | 188 | 4.0 | 9.0 | 0.00 | 0.00 | 0.00 | 52 | 1011.1 |
| 20260508112642 | 70 | 196 | 3.0 | 10.0 | 0.00 | 0.00 | 0.00 | 51 | 1011.0 |
| 20260508111742 | 70 | 216 | 3.0 | 9.0 | 0.00 | 0.00 | 0.00 | 50 | 1011.2 |
| 20260508110842 | 69 | 237 | 4.0 | 11.0 | 0.00 | 0.00 | 0.00 | 52 | 1011.2 |
| 20260508105942 | 69 | 255 | 4.0 | 13.0 | 0.00 | 0.00 | 0.00 | 51 | 1011.2 |
| 20260508105042 | 69 | 233 | 4.0 | 9.0 | 0.00 | 0.00 | 0.00 | 51 | 1011.2 |
| 20260508104203 | 68 | 221 | 4.0 | 10.0 | 0.00 | 0.00 | 0.00 | 54 | 1011.2 |
| 20260508103242 | 68 | 192 | 3.0 | 9.0 | 0.00 | 0.00 | 0.00 | 53 | 1011.2 |
| 20260508102342 | 68 | 191 | 4.0 | 10.0 | 0.00 | 0.00 | 0.00 | 53 | 1011.3 |
| 20260508101441 | 68 | 226 | 4.0 | 12.0 | 0.00 | 0.00 | 0.00 | 56 | 1011.5 |
| 20260508100542 | 68 | 198 | 3.0 | 11.0 | 0.00 | 0.00 | 0.00 | 54 | 1011.4 |
| 20260508095642 | 67 | 217 | 3.0 | 8.0 | 0.00 | 0.00 | 0.00 | 58 | 1011.5 |
| 20260508094741 | 67 | 235 | 4.0 | 11.0 | 0.00 | 0.00 | 0.00 | 57 | 1011.5 |
| 20260508093842 | 67 | 220 | 4.0 | 9.0 | 0.00 | 0.00 | 0.00 | 59 | 1011.7 |
| 20260508093003 | 66 | 245 | 5.0 | 12.0 | 0.00 | 0.00 | 0.00 | 61 | 1011.8 |
| 20260508092042 | 66 | 238 | 4.0 | 15.0 | 0.00 | 0.00 | 0.00 | 61 | 1011.9 |
| 20260508091142 | 66 | 234 | 5.0 | 11.0 | 0.00 | 0.00 | 0.00 | 62 | 1011.7 |
| 20260508090241 | 65 | 248 | 5.0 | 13.0 | 0.00 | 0.00 | 0.00 | 64 | 1011.6 |
| 20260508085341 | 65 | 260 | 2.0 | 10.0 | 0.00 | 0.00 | 0.00 | 66 | 1011.6 |
| 20260508084441 | 65 | 220 | 2.0 | 5.0 | 0.00 | 0.00 | 0.00 | 69 | 1011.7 |
| 20260508083541 | 64 | 195 | 3.0 | 9.0 | 0.00 | 0.00 | 0.00 | 70 | 1011.7 |
| 20260508082641 | 64 | 227 | 2.0 | 9.0 | 0.00 | 0.00 | 0.00 | 71 | 1011.8 |
| 20260508081741 | 63 | 239 | 2.0 | 9.0 | 0.00 | 0.00 | 0.00 | 71 | 1011.8 |
| 20260508080841 | 63 | 225 | 2.0 | 9.0 | 0.00 | 0.00 | 0.00 | 72 | 1011.6 |
| 20260508075941 | 62 | 199 | 1.0 | 8.0 | 0.00 | 0.00 | 0.00 | 73 | 1011.6 |
| 20260508075041 | 62 | 230 | 1.0 | 7.0 | 0.00 | 0.00 | 0.00 | 73 | 1011.5 |
| 20260508074142 | 62 | 201 | 2.0 | 5.0 | 0.00 | 0.00 | 0.00 | 74 | 1011.4 |
| 20260508073302 | 61 | 199 | 2.0 | 5.0 | 0.00 | 0.00 | 0.00 | 74 | 1011.3 |
| 20260508072341 | 61 | 199 | 3.0 | 9.0 | 0.00 | 0.00 | 0.00 | 75 | 1011.2 |
| 20260508071441 | 61 | 212 | 2.0 | 8.0 | 0.00 | 0.00 | 0.00 | 75 | 1011.2 |
| 20260508070541 | 61 | 216 | 2.0 | 6.0 | 0.00 | 0.00 | 0.00 | 75 | 1011.2 |
| 20260508065641 | 60 | 210 | 1.0 | 6.0 | 0.00 | 0.00 | 0.00 | 76 | 1011.2 |
| 20260508064741 | 60 | 199 | 1.0 | 6.0 | 0.00 | 0.00 | 0.00 | 76 | 1011.1 |
| 20260508063841 | 60 | 220 | 1.0 | 5.0 | 0.00 | 0.00 | 0.00 | 77 | 1011.1 |
| 20260508062941 | 60 | 206 | 1.0 | 5.0 | 0.00 | 0.00 | 0.00 | 77 | 1011.1 |
| 20260508062041 | 60 | 189 | 1.0 | 4.0 | 0.00 | 0.00 | 0.00 | 78 | 1011.0 |
| 20260508061141 | 59 | 187 | 2.0 | 6.0 | 0.00 | 0.00 | 0.00 | 78 | 1010.9 |
| 20260508060241 | 59 | 199 | 2.0 | 6.0 | 0.00 | 0.00 | 0.00 | 78 | 1010.9 |
| 20260508055341 | 59 | 204 | 1.0 | 5.0 | 0.00 | 0.00 | 0.00 | 78 | 1010.8 |
| 20260508054441 | 59 | 222 | 1.0 | 5.0 | 0.00 | 0.00 | 0.00 | 77 | 1010.8 |
| 20260508053541 | 59 | 214 | 2.0 | 6.0 | 0.00 | 0.00 | 0.00 | 77 | 1010.6 |
| 20260508052641 | 60 | 202 | 2.0 | 6.0 | 0.00 | 0.00 | 0.00 | 77 | 1010.5 |
| 20260508051741 | 60 | 205 | 1.0 | 4.0 | 0.00 | 0.00 | 0.00 | 77 | 1010.3 |
| 20260508050841 | 60 | 207 | 2.0 | 6.0 | 0.00 | 0.00 | 0.00 | 76 | 1010.2 |
| 20260508045941 | 60 | 205 | 1.0 | 6.0 | 0.00 | 0.00 | 0.00 | 76 | 1010.2 |
| 20260508045102 | 60 | 207 | 1.0 | 5.0 | 0.00 | 0.00 | 0.00 | 75 | 1010.2 |
| 20260508044141 | 60 | 226 | 2.0 | 6.0 | 0.00 | 0.00 | 0.00 | 75 | 1010.0 |
| 20260508043241 | 60 | 163 | 2.0 | 5.0 | 0.00 | 0.00 | 0.00 | 75 | 1009.8 |
| 20260508042402 | 60 | 182 | 2.0 | 6.0 | 0.00 | 0.00 | 0.00 | 75 | 1009.7 |
| 20260508041441 | 60 | 210 | 2.0 | 7.0 | 0.00 | 0.00 | 0.00 | 75 | 1009.9 |
| 20260508040541 | 60 | 213 | 2.0 | 7.0 | 0.00 | 0.00 | 0.00 | 74 | 1009.9 |
| 20260508035641 | 61 | 217 | 2.0 | 6.0 | 0.00 | 0.00 | 0.00 | 74 | 1010.1 |
| 20260508034741 | 60 | 192 | 2.0 | 5.0 | 0.00 | 0.00 | 0.00 | 74 | 1009.9 |
| 20260508033841 | 60 | 184 | 2.0 | 9.0 | 0.00 | 0.00 | 0.00 | 74 | 1009.9 |
| 20260508032940 | 60 | 208 | 2.0 | 9.0 | 0.00 | 0.00 | 0.00 | 74 | 1010.0 |
| 20260508032101 | 60 | 208 | 1.0 | 6.0 | 0.00 | 0.00 | 0.00 | 74 | 1010.0 |
| 20260508031141 | 60 | 202 | 2.0 | 7.0 | 0.00 | 0.00 | 0.00 | 74 | 1010.1 |
| 20260508030240 | 60 | 197 | 2.0 | 8.0 | 0.00 | 0.00 | 0.00 | 74 | 1010.2 |
| 20260508025340 | 60 | 205 | 2.0 | 8.0 | 0.00 | 0.00 | 0.00 | 74 | 1010.3 |
| 20260508024440 | 60 | 204 | 2.0 | 6.0 | 0.00 | 0.00 | 0.00 | 74 | 1010.5 |
| 20260508023541 | 61 | 207 | 3.0 | 7.0 | 0.00 | 0.00 | 0.00 | 74 | 1010.2 |
| 20260508022641 | 61 | 214 | 2.0 | 8.0 | 0.00 | 0.00 | 0.00 | 74 | 1010.3 |
| 20260508021740 | 61 | 212 | 2.0 | 6.0 | 0.00 | 0.00 | 0.00 | 73 | 1010.4 |
| 20260508020840 | 61 | 210 | 2.0 | 5.0 | 0.00 | 0.00 | 0.00 | 73 | 1010.4 |
| 20260508020001 | 61 | 201 | 2.0 | 6.0 | 0.00 | 0.00 | 0.00 | 73 | 1010.2 |
| 20260508015040 | 61 | 199 | 2.0 | 9.0 | 0.00 | 0.00 | 0.00 | 73 | 1010.3 |
| 20260508014201 | 61 | 202 | 2.0 | 7.0 | 0.00 | 0.00 | 0.00 | 73 | 1010.5 |
| 20260508013302 | 62 | 213 | 2.0 | 7.0 | 0.00 | 0.00 | 0.00 | 73 | 1010.6 |
| 20260508012340 | 62 | 218 | 3.0 | 7.0 | 0.00 | 0.00 | 0.00 | 73 | 1010.6 |
| 20260508011440 | 62 | 197 | 2.0 | 7.0 | 0.00 | 0.00 | 0.00 | 73 | 1010.6 |
| 20260508010540 | 62 | 210 | 2.0 | 5.0 | 0.00 | 0.00 | 0.00 | 73 | 1010.5 |
| 20260508005640 | 62 | 210 | 3.0 | 7.0 | 0.00 | 0.00 | 0.00 | 73 | 1010.7 |
| 20260508004740 | 62 | 220 | 2.0 | 8.0 | 0.00 | 0.00 | 0.00 | 73 | 1010.9 |
| 20260508003840 | 62 | 221 | 2.0 | 8.0 | 0.00 | 0.00 | 0.00 | 73 | 1010.9 |
| 20260508002940 | 62 | 219 | 3.0 | 7.0 | 0.00 | 0.00 | 0.00 | 73 | 1010.8 |
| 20260508002040 | 62 | 208 | 3.0 | 9.0 | 0.00 | 0.00 | 0.00 | 73 | 1010.6 |
| 20260508001140 | 62 | 197 | 3.0 | 8.0 | 0.00 | 0.00 | 0.00 | 73 | 1010.6 |
| 20260508000242 | 62 | 211 | 3.0 | 7.0 | 0.00 | 0.00 | 0.00 | 72 | 1010.8 |
| 20260507235340 | 62 | 219 | 2.0 | 9.0 | 0.00 | 0.00 | 0.00 | 72 | 1011.0 |
| 20260507234440 | 63 | 201 | 2.0 | 5.0 | 0.00 | 0.00 | 0.00 | 71 | 1010.9 |
| 20260507233540 | 62 | 206 | 3.0 | 6.0 | 0.00 | 0.00 | 0.00 | 71 | 1010.8 |
| 20260507232640 | 62 | 202 | 4.0 | 8.0 | 0.00 | 0.00 | 0.00 | 71 | 1010.8 |
| 20260507231740 | 62 | 198 | 3.0 | 8.0 | 0.00 | 0.00 | 0.00 | 71 | 1010.8 |
| 20260507230840 | 63 | 213 | 3.0 | 8.0 | 0.00 | 0.00 | 0.00 | 71 | 1011.1 |
| 20260507225940 | 62 | 213 | 4.0 | 7.0 | 0.00 | 0.00 | 0.00 | 71 | 1011.1 |
| 20260507225040 | 62 | 218 | 3.0 | 9.0 | 0.00 | 0.00 | 0.00 | 71 | 1011.2 |
| 20260507224140 | 62 | 213 | 3.0 | 5.0 | 0.00 | 0.00 | 0.00 | 71 | 1011.4 |
| 20260507223240 | 63 | 235 | 3.0 | 9.0 | 0.00 | 0.00 | 0.00 | 70 | 1011.5 |
| 20260507222340 | 63 | 224 | 3.0 | 5.0 | 0.00 | 0.00 | 0.00 | 69 | 1011.5 |
| 20260507221440 | 63 | 211 | 2.0 | 9.0 | 0.00 | 0.00 | 0.00 | 69 | 1011.6 |
| 20260507220540 | 63 | 222 | 3.0 | 7.0 | 0.00 | 0.00 | 0.00 | 68 | 1011.5 |
| 20260507215640 | 63 | 220 | 3.0 | 6.0 | 0.00 | 0.00 | 0.00 | 67 | 1011.5 |
| 20260507214801 | 63 | 223 | 3.0 | 6.0 | 0.00 | 0.00 | 0.00 | 66 | 1011.5 |
| 20260507213839 | 64 | 220 | 2.0 | 7.0 | 0.00 | 0.00 | 0.00 | 65 | 1011.5 |
| 20260507213001 | 64 | 220 | 2.0 | 7.0 | 0.00 | 0.00 | 0.00 | 64 | 1011.5 |
| 20260507212039 | 64 | 249 | 3.0 | 7.0 | 0.00 | 0.00 | 0.00 | 63 | 1011.4 |
| 20260507211201 | 64 | 246 | 4.0 | 8.0 | 0.00 | 0.00 | 0.00 | 62 | 1011.4 |
| 20260507210239 | 64 | 247 | 4.0 | 8.0 | 0.00 | 0.00 | 0.00 | 61 | 1011.3 |
| 20260507205339 | 64 | 245 | 3.0 | 10.0 | 0.00 | 0.00 | 0.00 | 61 | 1011.2 |
| 20260507204439 | 64 | 257 | 3.0 | 8.0 | 0.00 | 0.00 | 0.00 | 61 | 1011.1 |
| 20260507203540 | 64 | 266 | 4.0 | 9.0 | 0.00 | 0.00 | 0.00 | 61 | 1011.0 |
| 20260507202639 | 64 | 270 | 5.0 | 9.0 | 0.00 | 0.00 | 0.00 | 62 | 1010.9 |
| 20260507201740 | 64 | 264 | 5.0 | 12.0 | 0.00 | 0.00 | 0.00 | 61 | 1010.9 |
| 20260507200839 | 65 | 262 | 4.0 | 11.0 | 0.00 | 0.00 | 0.00 | 62 | 1011.0 |
| 20260507195939 | 65 | 266 | 4.0 | 10.0 | 0.00 | 0.00 | 0.00 | 62 | 1010.8 |
| 20260507195039 | 65 | 241 | 5.0 | 9.0 | 0.00 | 0.00 | 0.00 | 62 | 1010.7 |
| 20260507194139 | 66 | 250 | 5.0 | 11.0 | 0.00 | 0.00 | 0.00 | 62 | 1010.7 |
| 20260507193300 | 66 | 247 | 5.0 | 13.0 | 0.00 | 0.00 | 0.00 | 61 | 1010.6 |
| 20260507192339 | 66 | 258 | 6.0 | 12.0 | 0.00 | 0.00 | 0.00 | 61 | 1010.4 |
| 20260507191439 | 66 | 245 | 6.0 | 14.0 | 0.00 | 0.00 | 0.00 | 61 | 1010.4 |
| 20260507190539 | 67 | 244 | 8.0 | 13.0 | 0.00 | 0.00 | 0.00 | 59 | 1010.2 |
| 20260507185639 | 67 | 247 | 8.0 | 16.0 | 0.00 | 0.00 | 0.00 | 57 | 1010.0 |
| 20260507184739 | 67 | 249 | 9.0 | 17.0 | 0.00 | 0.00 | 0.00 | 57 | 1009.9 |
| 20260507183839 | 68 | 241 | 9.0 | 19.0 | 0.00 | 0.00 | 0.00 | 56 | 1009.8 |
| 20260507182939 | 68 | 237 | 8.0 | 19.0 | 0.00 | 0.00 | 0.00 | 55 | 1009.7 |
| 20260507182039 | 69 | 249 | 8.0 | 16.0 | 0.00 | 0.00 | 0.00 | 56 | 1009.5 |
| 20260507181139 | 69 | 247 | 9.0 | 17.0 | 0.00 | 0.00 | 0.00 | 56 | 1009.5 |
| 20260507180239 | 70 | 255 | 8.0 | 17.0 | 0.00 | 0.00 | 0.00 | 55 | 1009.4 |
| 20260507175339 | 70 | 255 | 8.0 | 18.0 | 0.00 | 0.00 | 0.00 | 53 | 1009.4 |
| 20260507174439 | 70 | 245 | 9.0 | 16.0 | 0.00 | 0.00 | 0.00 | 52 | 1009.3 |
| 20260507173539 | 70 | 245 | 8.0 | 16.0 | 0.00 | 0.00 | 0.00 | 51 | 1009.2 |
| 20260507172639 | 71 | 230 | 7.0 | 15.0 | 0.00 | 0.00 | 0.00 | 51 | 1009.0 |
| 20260507171740 | 71 | 243 | 8.0 | 14.0 | 0.00 | 0.00 | 0.00 | 50 | 1009.0 |
| 20260507170839 | 72 | 244 | 7.0 | 16.0 | 0.00 | 0.00 | 0.00 | 49 | 1009.0 |
| 20260507165939 | 72 | 231 | 7.0 | 14.0 | 0.00 | 0.00 | 0.00 | 48 | 1008.9 |
| 20260507165039 | 72 | 244 | 7.0 | 15.0 | 0.00 | 0.00 | 0.00 | 47 | 1008.8 |
| 20260507164139 | 73 | 233 | 6.0 | 13.0 | 0.00 | 0.00 | 0.00 | 46 | 1008.7 |
| 20260507163300 | 73 | 213 | 6.0 | 12.0 | 0.00 | 0.00 | 0.00 | 46 | 1008.8 |
| 20260507162339 | 73 | 234 | 7.0 | 15.0 | 0.00 | 0.00 | 0.00 | 45 | 1008.7 |
| 20260507161440 | 73 | 235 | 6.0 | 15.0 | 0.00 | 0.00 | 0.00 | 45 | 1008.7 |
| 20260507160600 | 74 | 245 | 6.0 | 15.0 | 0.00 | 0.00 | 0.00 | 44 | 1008.6 |
| 20260507155639 | 74 | 245 | 7.0 | 15.0 | 0.00 | 0.00 | 0.00 | 43 | 1008.6 |
| 20260507154739 | 73 | 269 | 7.0 | 16.0 | 0.00 | 0.00 | 0.00 | 44 | 1008.6 |
| 20260507153839 | 73 | 226 | 7.0 | 14.0 | 0.00 | 0.00 | 0.00 | 44 | 1008.6 |
| 20260507152939 | 73 | 248 | 8.0 | 16.0 | 0.00 | 0.00 | 0.00 | 44 | 1008.6 |
| 20260507152039 | 73 | 256 | 7.0 | 15.0 | 0.00 | 0.00 | 0.00 | 45 | 1008.7 |
| 20260507151139 | 73 | 246 | 6.0 | 16.0 | 0.00 | 0.00 | 0.00 | 46 | 1008.6 |
| 20260507150238 | 73 | 231 | 7.0 | 15.0 | 0.00 | 0.00 | 0.00 | 46 | 1008.8 |
| 20260507145400 | 73 | 240 | 6.0 | 14.0 | 0.00 | 0.00 | 0.00 | 47 | 1008.8 |
| 20260507144438 | 72 | 248 | 8.0 | 14.0 | 0.00 | 0.00 | 0.00 | 47 | 1009.0 |
| 20260507143539 | 72 | 248 | 9.0 | 16.0 | 0.00 | 0.00 | 0.00 | 48 | 1009.0 |
| 20260507142659 | 72 | 240 | 8.0 | 16.0 | 0.00 | 0.00 | 0.00 | 50 | 1009.1 |
| 20260507141738 | 72 | 234 | 7.0 | 18.0 | 0.00 | 0.00 | 0.00 | 52 | 1009.2 |
| 20260507140838 | 73 | 221 | 6.0 | 18.0 | 0.00 | 0.00 | 0.00 | 51 | 1009.2 |
| 20260507135938 | 72 | 224 | 6.0 | 16.0 | 0.00 | 0.00 | 0.00 | 51 | 1009.3 |
| 20260507135038 | 72 | 239 | 6.0 | 14.0 | 0.00 | 0.00 | 0.00 | 52 | 1009.4 |
| 20260507134159 | 72 | 231 | 8.0 | 17.0 | 0.00 | 0.00 | 0.00 | 53 | 1009.6 |
| 20260507133238 | 72 | 230 | 6.0 | 17.0 | 0.00 | 0.00 | 0.00 | 54 | 1009.6 |
| 20260507132338 | 72 | 218 | 6.0 | 14.0 | 0.00 | 0.00 | 0.00 | 53 | 1009.6 |
| 20260507131438 | 71 | 219 | 7.0 | 17.0 | 0.00 | 0.00 | 0.00 | 52 | 1009.7 |
| 20260507130538 | 71 | 219 | 7.0 | 15.0 | 0.00 | 0.00 | 0.00 | 53 | 1009.7 |
| 20260507125638 | 71 | 215 | 7.0 | 15.0 | 0.00 | 0.00 | 0.00 | 54 | 1009.8 |
| 20260507124759 | 71 | 218 | 7.0 | 16.0 | 0.00 | 0.00 | 0.00 | 54 | 1009.8 |
| 20260507123838 | 71 | 220 | 7.0 | 15.0 | 0.00 | 0.00 | 0.00 | 54 | 1009.8 |
| 20260507122938 | 72 | 227 | 6.0 | 16.0 | 0.00 | 0.00 | 0.00 | 55 | 1010.0 |